Crestview, FL

11:22 AM CDT on September 25, 2016 (GMT -0500)
Sikes

Weather History for KCEW - February, 2013

Change the Weather History Date:

Friday, February 8, 2013

  Actual Average Record
Temperature  
Mean Temperature 61 °F -  
Max Temperature 72 °F 61 °F 78 °F (1999)
Min Temperature 50 °F 33 °F 20 °F (1976)
Degree Days  
Heating Degree Days 4    
Growing Degree Days 11 (Base 50)    
Moisture  
Dew Point 53 °F    
Average Humidity 84    
Maximum Humidity 100    
Minimum Humidity 49    
Precipitation  
Precipitation 0.00 in - - ()
Sea Level Pressure  
Sea Level Pressure 30.04 in    
Wind  
Wind Speed 1 mph (NNW)    
Max Wind Speed 13 mph    
Max Gust Speed 30 mph    
Visibility 7 miles    
Events Fog    
Averages and records for this station are not official NWS values.
T = Trace of Precipitation, MM = Missing Value Source: NWS Daily Summary

Daily Weather History Graph

Daily Weather History Graph

Search for Another Location

Airport or City:

Trip Planner

Search our weather history database for the weather conditions in past years. The results will help you decide how hot, cold, wet, or windy it might be!

Date:

Astronomy

Feb. 08, 2013 Rise Set
Actual Time 6:32 AM CST 5:28 PM CST
Civil Twilight 6:07 AM CST 5:53 PM CST
Nautical Twilight 5:39 AM CST 6:21 PM CST
Astronomical Twilight 5:10 AM CST 6:50 PM CST
Moon 4:57 AM CST (2/8) 4:03 PM CST (2/8)
Length of Visible Light 11h 45m
Length of Day
10h 55m
Waning Crescent, 3% of the Moon is Illuminated
Feb 8
Waning Crescent
Feb 10
New
Feb 17
First Quarter
Feb 25
Full
Mar 4
Last Quarter

Hourly Weather History & Observations

Time (CST) Temp. Dew Point Humidity Pressure Visibility Wind Dir Wind Speed Gust Speed Precip Events Conditions
12:53 AM 55.9 °F 54.0 °F 93% 29.96 in 10.0 mi Calm Calm - N/A   Mostly Cloudy
1:04 AM 55.4 °F 53.6 °F 94% 29.97 in 2.5 mi Calm Calm - N/A   Scattered Clouds
1:15 AM 53.6 °F 51.8 °F 94% 29.96 in 5.0 mi Calm Calm - N/A   Mostly Cloudy
1:53 AM 55.0 °F 53.1 °F 93% 29.96 in 10.0 mi Calm Calm - N/A   Overcast
2:53 AM 55.0 °F 54.0 °F 96% 29.96 in 8.0 mi Calm Calm - N/A   Overcast
3:53 AM 55.9 °F 55.0 °F 97% 29.97 in 9.0 mi Calm Calm - N/A   Overcast
4:45 AM 53.6 °F 53.6 °F 100% 29.99 in 2.0 mi Calm Calm - N/A   Mostly Cloudy
4:50 AM 53.6 °F 53.6 °F 100% 29.99 in 0.8 mi Calm Calm - N/A   Mostly Cloudy
4:53 AM 54.0 °F 53.1 °F 97% 29.99 in 0.5 mi Calm Calm - N/A Fog Fog
5:03 AM 53.6 °F 51.8 °F 94% 29.99 in 1.0 mi Calm Calm - N/A   Mostly Cloudy
5:14 AM 53.6 °F 51.8 °F 94% 30.00 in 1.0 mi Calm Calm - N/A   Scattered Clouds
5:25 AM 51.8 °F 51.8 °F 100% 30.00 in 0.5 mi Calm Calm - N/A Fog Fog
5:31 AM 51.8 °F 51.8 °F 100% 30.00 in 0.8 mi Calm Calm - N/A   Clear
5:34 AM 51.8 °F 51.8 °F 100% 30.01 in 1.2 mi Calm Calm - N/A   Partly Cloudy
5:38 AM 51.8 °F 51.8 °F 100% 30.01 in 0.8 mi Calm Calm - N/A   Mist
5:53 AM 50.0 °F 48.9 °F 96% 30.01 in 0.8 mi Calm Calm - N/A   Clear
6:01 AM 50.0 °F 48.2 °F 94% 30.02 in 2.0 mi Calm Calm - N/A   Clear
6:10 AM 51.8 °F 50.0 °F 94% 30.02 in 5.0 mi Calm Calm - N/A   Scattered Clouds
6:20 AM 51.8 °F 51.8 °F 100% 30.03 in 10.0 mi Calm Calm - N/A   Mostly Cloudy
6:53 AM 53.1 °F 52.0 °F 96% 30.03 in 6.0 mi Calm Calm - N/A   Overcast
7:53 AM 55.9 °F 54.0 °F 93% 30.05 in 10.0 mi Calm Calm - N/A   Overcast
8:18 AM 59.0 °F 55.4 °F 88% 30.05 in 10.0 mi Calm Calm - N/A   Scattered Clouds
8:53 AM 62.1 °F 55.0 °F 78% 30.06 in 10.0 mi Calm Calm - N/A   Partly Cloudy
9:53 AM 64.9 °F 55.0 °F 70% 30.07 in 10.0 mi SSW 3.5 mph - N/A   Mostly Cloudy
10:53 AM 66.9 °F 55.9 °F 68% 30.07 in 10.0 mi Calm Calm - N/A   Mostly Cloudy
11:01 AM 68.0 °F 57.2 °F 68% 30.07 in 10.0 mi Calm Calm - N/A   Mostly Cloudy
11:10 AM 69.8 °F 55.4 °F 60% 30.07 in 10.0 mi NW 5.8 mph - N/A   Overcast
11:53 AM 69.1 °F 55.9 °F 63% 30.06 in 10.0 mi NW 9.2 mph - N/A   Overcast
12:53 PM 71.1 °F 55.9 °F 59% 30.04 in 10.0 mi NW 8.1 mph - N/A   Overcast
1:53 PM 69.1 °F 55.9 °F 63% 30.04 in 10.0 mi West 10.4 mph - N/A   Overcast
2:53 PM 70.0 °F 55.0 °F 59% 30.04 in 10.0 mi NW 12.7 mph - N/A   Overcast
3:53 PM 72.0 °F 52.0 °F 49% 30.03 in 10.0 mi WNW 8.1 mph 29.9 mph N/A   Partly Cloudy
4:53 PM 70.0 °F 53.1 °F 55% 30.05 in 10.0 mi NNW 3.5 mph - N/A   Partly Cloudy
5:53 PM 66.0 °F 54.0 °F 65% 30.07 in 10.0 mi North 9.2 mph - 0.00 in   Scattered Clouds
6:53 PM 62.1 °F 53.1 °F 72% 30.10 in 10.0 mi North 5.8 mph - N/A   Clear
7:53 PM 60.1 °F 54.0 °F 80% 30.12 in 10.0 mi North 3.5 mph - N/A   Partly Cloudy
8:53 PM 59.0 °F 54.0 °F 83% 30.15 in 10.0 mi NNE 4.6 mph - N/A   Mostly Cloudy
9:53 PM 57.9 °F 53.1 °F 84% 30.16 in 10.0 mi NNE 6.9 mph - N/A   Overcast
10:53 PM 57.9 °F 52.0 °F 81% 30.17 in 10.0 mi NNE 5.8 mph - N/A   Overcast
11:53 PM 57.0 °F 48.9 °F 74% 30.16 in 10.0 mi Variable 5.8 mph - N/A   Overcast